Wainwright, AK

1:39 AM AKST on February 28, 2017 (GMT -0900)
Wiley Post-Will Rogers Memorial

Weather History for PABR - April, 2013

Change the Weather History Date:

Tuesday, April 2, 2013

  Actual Average Record
Temperature  
Mean Temperature -9 °F -7 °F  
Max Temperature -4 °F - 30 °F (2008)
Min Temperature -13 °F -14 °F -35 °F (1921)
Degree Days  
Heating Degree Days 74 72  
Month to date heating degree days 145 145  
Since 1 July heating degree days 14354 15397  
Cooling Degree Days 0    
Month to date cooling degree days 0  
Year to date cooling degree days 0  
Moisture  
Dew Point -13 °F    
Average Humidity 0    
Maximum Humidity 0    
Minimum Humidity 0    
Precipitation  
Precipitation T in 0.01 in 0.12 in (1973)
Month to date precipitation T 0.01  
Year to date precipitation 0.63 0.37  
Snow  
Snow T in 0.10 in 2.00 in (1973)
Month to date snowfall 0.2 0.2  
Since 1 July snowfall 52.1 31.3  
Snow Depth 7.00 in    
Sea Level Pressure  
Sea Level Pressure 30.68 in    
Wind  
Wind Speed 15 mph (ENE)    
Max Wind Speed 18 mph    
Max Gust Speed 23 mph    
Visibility 5 miles    
Events Snow    
T = Trace of Precipitation, MM = Missing Value Source: NWS Daily Summary

Daily Weather History Graph

Daily Weather History Graph

Search for Another Location

Airport or City:

Trip Planner

Search our weather history database for the weather conditions in past years. The results will help you decide how hot, cold, wet, or windy it might be!

Date:

Astronomy

Apr. 02, 2013 Rise Set
Actual Time 7:17 AM AKDT 9:45 PM AKDT
Civil Twilight 6:05 AM AKDT 10:59 PM AKDT
Nautical Twilight 4:06 AM AKDT 1:05 AM AKDT
Astronomical Twilight Sun does not rise Sun does not rise
Moon No Moon Rise No Moon Set
Length of Visible Light 16h 54m
Length of Day
14h 28m
Waning Gibbous, 54% of the Moon is Illuminated
Apr 2
Waning Gibbous
Apr 2
Last Quarter
Apr 10
New
Apr 18
First Quarter
Apr 25
Full

Hourly Weather History & Observations

Time (AKDT) Temp. Windchill Dew Point Humidity Pressure Visibility Wind Dir Wind Speed Gust Speed Precip Events Conditions
12:03 AM -2.2 °F -22.9 °F -7.6 °F 78% 30.59 in 2.5 mi ENE 16.1 mph - 0.00 in Snow Blowing Snow
12:09 AM -2.2 °F -22.9 °F -7.6 °F 78% 30.59 in 3.0 mi ENE 16.1 mph - 0.00 in Snow Light Snow
12:16 AM -2.2 °F -22.2 °F -7.6 °F 78% 30.59 in 2.5 mi ENE 15.0 mph - 0.00 in Snow Light Snow
12:53 AM -4.0 °F -25.8 °F -9.0 °F 79% 30.61 in 2.0 mi ENE 17.3 mph - 0.00 in Snow Light Snow
1:14 AM -4.0 °F -25.2 °F -9.4 °F 78% 30.61 in 4.0 mi ENE 16.1 mph - 0.00 in Snow Light Snow
1:53 AM -6.0 °F -27.7 °F -11.0 °F 79% 30.63 in 7.0 mi ENE 16.1 mph - 0.00 in Snow Light Snow
2:53 AM -6.0 °F -28.4 °F -11.0 °F 79% 30.63 in 6.0 mi ENE 17.3 mph - 0.00 in Snow Light Snow
3:16 AM -5.8 °F -27.5 °F -11.2 °F 77% 30.64 in 2.5 mi ENE 16.1 mph - 0.00 in Snow Light Snow
3:40 AM -7.6 °F -29.8 °F -11.2 °F 84% 30.64 in 2.0 mi ENE 16.1 mph - 0.00 in Snow Light Snow
3:53 AM -7.1 °F -29.8 °F -13.0 °F 75% 30.65 in 2.0 mi ENE 17.3 mph - 0.00 in Snow Light Snow
4:20 AM -7.6 °F -30.5 °F -14.8 °F 71% 30.65 in 1.8 mi ENE 17.3 mph - 0.00 in Snow Light Snow
4:28 AM -9.4 °F -32.1 °F -14.8 °F 77% 30.65 in 2.5 mi ENE 16.1 mph - 0.00 in Snow Light Snow
4:37 AM -9.4 °F -31.4 °F -16.6 °F 71% 30.65 in 5.0 mi ENE 15.0 mph - 0.00 in Snow Light Snow
4:45 AM -11.2 °F -33.7 °F -16.6 °F 77% 30.65 in 5.0 mi ENE 15.0 mph - 0.00 in Snow Light Snow
4:53 AM -11.0 °F -33.5 °F -17.0 °F 75% 30.66 in 5.0 mi ENE 15.0 mph - 0.00 in Snow Light Snow
5:53 AM -11.0 °F -34.9 °F -16.1 °F 78% 30.67 in 1.8 mi ENE 17.3 mph - 0.00 in Snow Light Snow
6:53 AM -9.0 °F -30.2 °F -15.0 °F 75% 30.67 in 1.5 mi ENE 13.8 mph - 0.00 in Snow Light Snow
7:03 AM -9.4 °F -29.8 °F -14.8 °F 77% 30.67 in 2.5 mi ENE 12.7 mph - 0.00 in Snow Light Snow
7:39 AM -7.6 °F -29.1 °F -14.8 °F 71% 30.68 in 1.2 mi ENE 15.0 mph - 0.00 in Snow Light Snow
7:53 AM -9.0 °F -30.2 °F -15.0 °F 75% 30.69 in 1.2 mi ENE 13.8 mph - 0.00 in Snow Light Snow
8:32 AM -11.2 °F -34.4 °F -16.6 °F 77% 30.68 in 2.0 mi NE 16.1 mph - 0.00 in   Partly Cloudy
8:53 AM -11.9 °F -35.4 °F -18.0 °F 74% 30.69 in 1.2 mi ENE 16.1 mph - 0.00 in   Partly Cloudy
9:53 AM -11.9 °F -35.4 °F -18.0 °F 74% 30.70 in 1.0 mi ENE 16.1 mph - N/A Snow Partly Cloudy
10:46 AM -11.2 °F -34.4 °F -16.6 °F 77% 30.70 in 2.5 mi ENE 16.1 mph - N/A Snow Scattered Clouds
10:53 AM -11.0 °F -34.2 °F -17.0 °F 75% 30.71 in 3.0 mi ENE 16.1 mph - N/A Snow Scattered Clouds
11:53 AM -9.0 °F -30.9 °F -15.0 °F 75% 30.72 in 3.0 mi ENE 15.0 mph - N/A   Partly Cloudy
12:53 PM -8.0 °F -29.6 °F -14.1 °F 75% 30.73 in 4.0 mi ENE 15.0 mph - N/A   Partly Cloudy
1:53 PM -7.1 °F -27.6 °F -13.0 °F 75% 30.74 in 10.0 mi ENE 13.8 mph - N/A   Partly Cloudy
2:53 PM -5.1 °F -26.6 °F -11.9 °F 72% 30.74 in 10.0 mi ENE 16.1 mph - N/A   Partly Cloudy
3:53 PM -5.1 °F -25.9 °F -11.0 °F 76% 30.74 in 10.0 mi ENE 15.0 mph - N/A   Partly Cloudy
4:53 PM -4.0 °F -24.5 °F -9.9 °F 76% 30.74 in 10.0 mi NE 15.0 mph - N/A   Partly Cloudy
5:53 PM -4.0 °F -25.2 °F -11.0 °F 72% 30.74 in 10.0 mi ENE 16.1 mph - N/A   Partly Cloudy
6:53 PM -5.1 °F -24.3 °F -11.0 °F 76% 30.74 in 10.0 mi ENE 12.7 mph - N/A   Partly Cloudy
7:53 PM -6.0 °F -25.5 °F -11.9 °F 75% 30.75 in 10.0 mi NE 12.7 mph - N/A   Partly Cloudy
8:53 PM -7.1 °F -26.8 °F -13.0 °F 75% 30.75 in 10.0 mi NE 12.7 mph - N/A   Clear
9:53 PM -8.0 °F -28.0 °F -14.1 °F 75% 30.76 in 10.0 mi ENE 12.7 mph - N/A   Clear
10:53 PM -9.0 °F -28.4 °F -15.0 °F 75% 30.78 in 10.0 mi ENE 11.5 mph - N/A   Clear
11:53 PM -9.9 °F -28.6 °F -15.0 °F 78% 30.79 in 10.0 mi ENE 10.4 mph - N/A   Clear